TITAN 34D TRANSTAGE DEB, 23041

Orbit data source: Space-Track

TITAN 34D TRANSTAGE DEB, 23041 is space debris in HEO originally from a launch on Fri, 02 Sep 1988 UTC launched from the Air Force Eastern Test Range (AFETR). Debris objects in space refer to the collection of defunct objects orbiting the Earth. Examples of debris include non-operational satellites, rocket bodies, and fragments generated from explosions, collisions, or faulty payload assembly.

Loading next visibility...
Identifier
23041, 1988-077L
Orbit
HEO
Country
Flag of USUS
Related business
Manufacturer
Unknown
Mission
Spacecraft
Bus & Motor
Unknown
Mass
Unknown
Launch date (UTC)
1988-09-02 (38 years ago)
Launch vehicle
Unknown
Launch site
Air Force Eastern Test Range (AFETR)
Object type
Payload
Rocket body
Debris
Shape & HBR
Unknown shape, 0.3 m
Radar Cross Section
Medium (>0.1 m² and <1 m²)

Expand to show TLE details & history
Last TLE update: 3 days ago

TLE from 3 days ago
0 TITAN 34D TRANSTAGE DEB
1 23041U 88077L   26170.53039921  .00000023  00000-0  29339-3 0  9992
2 23041  27.2415  14.5008 7269330 323.4971   4.0856  2.22387160 56768
Epoch: 2026-06-19T12:43Z
TLE epoch observation values (Epoch: 2026-06-19T12:43:46.491Z)
Latitude
0.00001°
Longitude
-84.1827°
Altitude
1,026.732 km
Speed
9.57 km/s
True Right ascension
00h 58m 04s
True Declination
0° 00' 00"
Sunlit
Object was in daylight at epoch
Visualization orbit readout
Latitude
Unknown
Longitude
Unknown
Altitude
Unknown
Speed
Unknown
Apparent Right ascension
Unknown
Apparent Declination
Unknown
Sunlit
N/A
Visualization observer readout
Local Sidereal Time
23:08:24
Azimuth
Unknown
Elevation
Unknown
Doppler factor
Unknown
Orbital elements
Apogee altitude
36,444.198 km
Perigee altitude
393.039 km
Semi-major axis
24,796.755 km
Eccentricity
0.72693
Inclination
27.2415°
RAAN
14.5008°
Arg. of periapsis
323.4971°
True anomaly
35.59063°
Mean anomaly
4.0856°
Eccentric anomaly
14.54717°
Mean motion
0.55584 °/min
Orbital period
647.67 mins
BSTAR
0.00029339
Loading maneuver chart data...
Computing Atmospheric mass density...

Documentation

Showing up to 5 results
|